Regional Weather Roundup
Issued by NWS

Home | Current Version | Previous Version | Text Only | Print | Product List | Glossary Off
Versions: 1 2 3 4 5 6 7 8 9 10 11 12 13 14 15 16 17 18 19 20 21 22 23 24 25 26 27 28 29 30 31 32 33 34 35 36 37 38 39 40 41 42 43 44 45 46 47 48 49 50

000
ASUS45 KBOI 292010
RWRID

IDAHO REGIONAL WEATHER ROUNDUP
NATIONAL WEATHER SERVICE BOISE ID
200 PM MDT MON JUN 29 2015

NOTE: "FAIR" INDICATES FEW OR NO CLOUDS BELOW 12000 FEET
WITH NO SIGNIFICANT WEATHER AND/OR OBSTRUCTIONS TO VISIBILITY

IDZ012-014-292100-
SOUTHWEST IDAHO


CITY           SKY/WX    TMP DP  RH WIND       PRES   REMARKS
BOISE          MOSUNNY   97  56  25 W10       29.95F HX  95
CALDWELL       MOSUNNY   99  55  23 NW12      29.94F HX  97
MOUNTAIN HOME  PTSUNNY  100  47  16 VRB1      29.96F HX  96
$$

IDZ016-017-292100-
SOUTHCENTRAL IDAHO


CITY           SKY/WX    TMP DP  RH WIND       PRES   REMARKS
BURLEY         SUNNY     93  56  28 VRB5      30.05F HX  91
JEROME         SUNNY     94  53  25 SW5       30.05F HX  91
TWIN FALLS     SUNNY     96  54  24 N8        30.03F HX  94
$$

IDZ019>023-292100-
SOUTHEAST IDAHO


CITY           SKY/WX    TMP DP  RH WIND       PRES   REMARKS
IDAHO FALLS    SUNNY     92  61  35 NW5       30.11F HX  92
POCATELLO      SUNNY     97  60  29 NW12      30.07F HX  97
REXBURG        SUNNY     94  51  23 VRB3      30.13F HX  91
$$

IDZ006-010-011-018-031-032-292100-
CENTRAL IDAHO MOUNTAINS


CITY           SKY/WX    TMP DP  RH WIND       PRES   REMARKS
MCCALL         PTSUNNY   91  52  26 W7        30.11F
HAILEY         MOSUNNY   91  55  29 SE14      30.15F
STANLEY          N/A     87  47  24 VRB5      30.24F
SALMON         CLOUDY    90  54  29 N7        30.00F
CHALLIS        PTSUNNY   94  44  17 NE6       30.11F HX  90
$$

IDZ002-004-006-007-026-292100-
NORTHERN IDAHO


CITY           SKY/WX    TMP DP  RH WIND       PRES   REMARKS
LEWISTON       PTSUNNY   95  59  30 N6        29.90F HX  94
LOWELL           N/A     90  64  42 S3        29.90F HX  91
COEUR D`ALENE  CLOUDY    90  61  37 NW8       29.97S
MULLAN PASS    CLOUDY    69  55  60 S5        30.25S
$$


USA.gov is the U.S. government's official web portal to all federal, state and local government web resources and services.